Weather History for Bonaire, Bonaire

Change the Weather History Date:

Friday, December 28, 2012

  Actual Average Record
Temperature  
Mean Temperature 82 °F -  
Max Temperature 86 °F 84 °F 89 °F (2006)
Min Temperature 79 °F 77 °F 75 °F (2004)
Cooling Degree Days 18    
Growing Degree Days 32 (Base 50)    
Moisture  
Dew Point 73 °F    
Average Humidity 73    
Maximum Humidity 79    
Minimum Humidity 57    
Precipitation  
Precipitation 0.00 in - - ()
Sea Level Pressure  
Sea Level Pressure 29.91 in    
Wind  
Wind Speed 14 mph ()    
Max Wind Speed 23 mph    
Max Gust Speed -    
Visibility 8.4 miles    
Events      
Averages and records for this station are not official NWS values.
T = Trace of Precipitation, MM = Missing Value Source: Averaged Metar Reports

Daily Weather History Graph

Daily Weather History Graph

Search for Another Location

Airport:

Trip Planner

Search our weather history database for the weather conditions in past years. The results will help you decide how hot, cold, wet, or windy it might be!

Date:

Astronomy

Dec. 28, 2012 Rise Set
Actual Time 6:52 AM AST 6:17 PM AST
Civil Twilight 6:29 AM AST 6:40 PM AST
Nautical Twilight 6:02 AM AST 7:07 PM AST
Astronomical Twilight 5:36 AM AST 7:33 PM AST
Moon 6:41 PM AST (12/28) 6:52 AM AST (12/28)
Length of Visible Light 12h 11m
Length of Day
11h 25m
Full, 100% of the Moon is Illuminated
Dec 28
Full
Jan 4
Last Quarter
Jan 11
New
Jan 18
First Quarter
Jan 27
Full

Hourly Weather History & Observations

Time (AST) Temp. Heat Index Dew Point Humidity Pressure Visibility Wind Dir Wind Speed Gust Speed Precip Events Conditions
12:00 AM 80.6 °F 85.4 °F 73.4 °F 79% 29.92 in - East 11.5 mph - N/A   Unknown
1:00 AM 80.6 °F 85.4 °F 73.4 °F 79% 29.92 in - East 12.7 mph - N/A   Partly Cloudy
2:00 AM 80 °F - 72 °F 70%  in - East 12.7 mph - -   Clear
2:00 AM 80.6 °F 84.6 °F 71.6 °F 74% 29.89 in - East 12.7 mph - N/A   Unknown
3:00 AM 80.6 °F 84.6 °F 71.6 °F 74% 29.86 in - East 13.8 mph - N/A   Unknown
4:00 AM 78.8 °F - 71.6 °F 78% 29.86 in - East 15.0 mph - N/A   Unknown
6:00 AM 78.8 °F - 71.6 °F 78% 29.89 in - East 12.7 mph - N/A   Unknown
7:00 AM 78.8 °F - 71.6 °F 78% 29.92 in - East 12.7 mph - N/A   Unknown
8:00 AM 82 °F - 73 °F 68%  in - East 15.0 mph - -  
8:00 AM 82.4 °F 88.2 °F 73.4 °F 74% 29.92 in - East 15.0 mph - N/A   Unknown
9:00 AM 82.4 °F 88.2 °F 73.4 °F 74% 29.95 in 6.2 mi East 19.6 mph - N/A   Scattered Clouds
10:00 AM 82.4 °F 88.2 °F 73.4 °F 74% 29.98 in 6.2 mi ESE 17.3 mph - N/A   Scattered Clouds
11:00 AM 84 °F - 74 °F 64% 29.97 in 12 mi East 19.6 mph - -   Partly Cloudy
11:00 AM 84.2 °F 92.3 °F 75.2 °F 74% 29.95 in 6.2 mi East 19.6 mph - N/A   Scattered Clouds
12:00 PM 86.0 °F 93.4 °F 73.4 °F 66% 29.95 in 6.2 mi East 20.7 mph - N/A   Scattered Clouds
1:00 PM 86.0 °F 93.4 °F 73.4 °F 66% 29.92 in 6.2 mi East 23.0 mph - N/A   Scattered Clouds
2:00 PM 86 °F - 73 °F 57% 29.92 in 16 mi East 19.6 mph - -   Partly Cloudy
2:00 PM 86.0 °F 93.4 °F 73.4 °F 66% 29.89 in 6.2 mi East 19.6 mph - N/A   Scattered Clouds
3:00 PM 86.0 °F 95.1 °F 75.2 °F 70% 29.89 in - North - - N/A   Unknown
4:00 PM 84.2 °F 90.9 °F 73.4 °F 70% 29.86 in 6.2 mi East 20.7 mph - N/A   Mostly Cloudy
5:00 PM 80 °F - 72 °F 70% 29.88 in 16 mi ESE 17.3 mph - -   Partly Cloudy
5:00 PM 80.6 °F 84.6 °F 71.6 °F 74% 29.86 in 6.2 mi ESE 17.3 mph - N/A   Scattered Clouds
6:00 PM 82.4 °F 88.2 °F 73.4 °F 74% 29.86 in 6.2 mi East 17.3 mph - N/A   Partly Cloudy
7:00 PM 80.6 °F 85.4 °F 73.4 °F 79% 29.86 in - North - - N/A   Unknown
8:00 PM 81 °F - 72 °F 69% 29.91 in 16 mi East 16.1 mph - -   Scattered Clouds
8:00 PM 80.6 °F 85.4 °F 73.4 °F 79% 29.89 in 6.2 mi East 16.1 mph - N/A   Partly Cloudy
9:00 PM 80.6 °F 85.4 °F 73.4 °F 79% 29.92 in - North - - N/A   Unknown
10:00 PM 80.6 °F 85.4 °F 73.4 °F 79% 29.92 in - North - - N/A   Unknown
11:00 PM 80 °F - 73 °F 75%  in 6 mi East 16.1 mph - -   Clear
11:00 PM 80.6 °F 85.4 °F 73.4 °F 79% 29.92 in 6.2 mi East 16.1 mph - N/A   Partly Cloudy